EW7535 Weather Reports


Display with metric or nautical units.
time (UTC)temp
F
wind
direction
speed
MPH
gust
MPH
rain 1hr
in
rain 24hr
in
rain mn
in
humidity
%
barometer
mb
20260903190047 92 200 3.0 6.0 0.00 0.00 0.00 46 1008.8
20260903184533 89 253 0.0 4.0 0.00 0.00 0.00 50 1009.1
20260903183032 88 276 1.0 2.0 0.00 0.00 0.00 50 1009.4
20260903181540 90 209 0.0 4.0 0.00 0.00 0.00 52 1009.6
20260903180025 89 117 1.0 5.0 0.00 0.00 0.00 52 1009.8
20260903174523 88 86 0.0 3.0 0.00 0.00 0.00 54 1010.0
20260903173019 87 152 1.0 6.0 0.00 0.00 0.00 54 1010.1
20260903171547 86 120 2.0 5.0 0.00 0.00 0.00 57 1010.1
20260903170054 84 107 0.0 4.0 0.00 0.00 0.00 60 1010.1
20260903164539 83 110 2.0 6.0 0.00 0.00 0.00 59 1010.1
20260903163047 83 122 2.0 7.0 0.00 0.00 0.00 60 1010.1
20260903161535 82 92 2.0 5.0 0.00 0.00 0.00 62 1010.1
20260903160033 82 124 0.0 2.0 0.00 0.00 0.00 64 1010.1
20260903154531 82 124 1.0 3.0 0.00 0.00 0.00 64 1010.1
20260903153029 82 120 0.0 4.0 0.00 0.00 0.00 65 1010.1
20260903151526 80 295 0.0 0.0 0.00 0.00 0.00 68 1010.2
20260903150034 79 295 0.0 1.0 0.00 0.00 0.00 70 1010.1
20260903144555 78 288 3.0 6.0 0.00 0.00 0.00 71 1010.1
20260903143059 78 297 1.0 5.0 0.00 0.00 0.00 71 1010.1
20260903141556 78 304 2.0 9.0 0.00 0.00 0.00 70 1010.2
20260903140050 78 296 2.0 7.0 0.00 0.00 0.00 67 1010.2
20260903134548 78 115 0.0 0.0 0.00 0.00 0.00 72 1010.1
20260903133047 78 116 0.0 0.0 0.00 0.00 0.00 72 1010.0
20260903131545 78 115 0.0 0.0 0.00 0.00 0.00 71 1010.0
20260903130041 78 115 0.0 0.0 0.00 0.00 0.00 70 1009.7
20260903124539 78 115 0.0 0.0 0.00 0.00 0.00 68 1009.7
20260903123038 78 143 0.0 0.0 0.00 0.00 0.00 68 1009.3
20260903121538 78 108 0.0 3.0 0.00 0.00 0.00 69 1009.2
20260903120040 78 93 0.0 3.0 0.00 0.00 0.00 69 1009.2
20260903114534 78 111 0.0 3.0 0.00 0.00 0.00 69 1009.0
20260903113033 78 89 0.0 4.0 0.00 0.00 0.00 69 1008.9
20260903111534 79 85 1.0 6.0 0.00 0.00 0.00 69 1009.0
20260903110029 79 112 2.0 5.0 0.00 0.00 0.00 69 1009.0
20260903104528 79 96 0.0 5.0 0.00 0.00 0.00 70 1008.9
20260903103027 78 120 1.0 5.0 0.00 0.00 0.00 70 1009.0
20260903101527 79 92 2.0 4.0 0.00 0.00 0.00 70 1009.1
20260903100026 79 120 0.0 3.0 0.00 0.00 0.00 70 1009.1
20260903094519 79 124 1.0 5.0 0.00 0.00 0.00 69 1009.1
20260903093024 79 126 0.0 3.0 0.00 0.00 0.00 69 1009.1
20260903091517 80 124 0.0 1.0 0.00 0.00 0.00 69 1009.2
20260903090014 80 124 0.0 0.0 0.00 0.00 0.00 68 1009.2
20260903084512 80 110 0.0 0.0 0.00 0.00 0.00 68 1009.2
20260903083012 80 120 0.0 0.0 0.00 0.00 0.00 67 1009.3
20260903081515 80 135 0.0 0.0 0.00 0.00 0.00 67 1009.4
20260903080006 81 135 0.0 0.0 0.00 0.00 0.00 65 1009.4
20260903074503 81 135 0.0 3.0 0.00 0.00 0.00 63 1009.5
20260903073001 81 95 0.0 3.0 0.00 0.00 0.00 63 1009.4
20260903071502 81 94 0.0 2.0 0.00 0.00 0.00 62 1009.4
20260903070104 82 96 0.0 3.0 0.00 0.00 0.00 61 1009.3
20260903064606 81 113 0.0 0.0 0.00 0.00 0.00 61 1009.1
20260903063104 82 113 0.0 0.0 0.00 0.00 0.00 60 1009.1
20260903061605 82 98 0.0 3.0 0.00 0.00 0.00 60 1009.1
20260903060055 82 107 0.0 0.0 0.00 0.00 0.00 59 1009.2
20260903054555 82 94 0.0 0.0 0.00 0.00 0.00 58 1009.3
20260903053054 82 95 0.0 2.0 0.00 0.00 0.00 57 1009.4
20260903051554 82 97 0.0 3.0 0.00 0.00 0.00 57 1009.4
20260903050023 82 99 0.0 0.0 0.00 0.00 0.00 58 1009.5
20260903044522 82 98 0.0 0.0 0.00 0.00 0.00 58 1009.5
20260903043023 83 98 0.0 1.0 0.00 0.00 0.00 56 1009.2
20260903041522 83 98 0.0 3.0 0.00 0.00 0.00 55 1009.1
20260903040019 84 104 1.0 6.0 0.00 0.00 0.00 55 1009.1
20260903034525 84 91 1.0 3.0 0.00 0.00 0.00 56 1008.9
20260903033015 84 102 0.0 2.0 0.00 0.00 0.00 58 1008.7
20260903031515 83 97 0.0 0.0 0.00 0.00 0.00 58 1008.6
20260903030015 83 124 0.0 0.0 0.00 0.00 0.00 58 1008.3
20260903024514 84 96 0.0 1.0 0.00 0.00 0.00 56 1008.1
20260903023028 84 110 0.0 0.0 0.00 0.00 0.00 56 1007.9
20260903021511 85 127 0.0 0.0 0.00 0.00 0.00 53 1007.8
20260903020010 85 101 0.0 0.0 0.00 0.00 0.00 53 1007.9
20260903014509 86 101 0.0 0.0 0.00 0.00 0.00 52 1007.9
20260903013007 87 93 1.0 2.0 0.00 0.00 0.00 51 1007.8
20260903011506 87 117 0.0 0.0 0.00 0.00 0.00 50 1007.7
20260903010005 88 205 0.0 0.0 0.00 0.00 0.00 49 1007.4
20260903004504 89 205 0.0 3.0 0.00 0.00 0.00 49 1007.6
20260903003002 89 205 0.0 4.0 0.00 0.00 0.00 47 1007.7
20260902224612 90 275 5.0 10.0 0.00 0.00 0.00 46 1008.1
20260902223110 91 38 2.0 7.0 0.00 0.00 0.00 44 1008.2
20260902221604 91 293 5.0 10.0 0.00 0.00 0.00 44 1008.2
20260902220053 90 297 2.0 9.0 0.00 0.00 0.00 45 1008.4
20260902214616 90 293 2.0 5.0 0.00 0.00 0.00 44 1008.6
20260902213051 90 283 2.0 5.0 0.00 0.00 0.00 44 1008.5
20260902211552 90 267 3.0 8.0 0.00 0.00 0.00 44 1008.7
20260902210049 91 269 4.0 12.0 0.00 0.00 0.00 44 1008.9
20260902204543 92 286 4.0 12.0 0.00 0.00 0.00 43 1008.9
20260902203042 92 286 6.0 14.0 0.00 0.00 0.00 43 1009.1
20260902201550 92 289 6.0 15.0 0.00 0.00 0.00 45 1009.1
20260902200037 91 280 6.0 15.0 0.00 0.00 0.00 46 1009.3
20260902194537 91 290 6.0 12.0 0.00 0.00 0.00 46 1009.7
20260902193028 91 243 7.0 14.0 0.00 0.00 0.00 47 1010.1
20260902191524 90 284 6.0 11.0 0.00 0.00 0.00 48 1010.3